Location: Capvern
(43.1036°N, 0.3160°E)
Time: 03:21:42
(UTC+00:00)

ATLAS 3B R/B - Pass Details

Date: 16 October 2021
Orbit: 989 x 1206 km, 63.8° (Epoch: 25 November)

Event Time Altitude Azimuth Distance (km) Brightness Sun altitude
Rises 18:24:04 0° 229° (SW) 3,701 6.3 -13.5°
Reaches altitude 10° 18:26:40 10° 234° (SW) 2,769 5.7 -14.0°
Maximum altitude 18:33:02 56° 312° (NW) 1,210 3.3 -15.1°
Drops below altitude 10° 18:39:44 10° 30° (NNE) 2,904 4.7 -16.4°
Sets 18:42:32 0° 35° (NE) 3,895 5.3 -16.9°
